(°C)
25°
23°
22°
22°
22°
22°
21°
(°C)
24°
24°
24°
24°
24°
24°
23°
NNW
N
NNW
W
W
W
WNW
(km/u)
10-16
8-16
7-18
8-19
9-23
11-20
12-21
(mm)
3
3
0
0
0
0
0
(%)
33
37
27
17
18
29
24

Zonverhoging

/ -1.1°
sun-icon
UV 4
05:08
20:56
Afnemende maan (247°)
23:20
11:19

METAR voor 52.53°N 31.02°O (UMGG)

Tijd Voorwaarden Temperatuur/
Dauwpunt
Wind Zicht Weer Wolken Luchtdruk Wijzigen Ruw
MVFR 24°C / 21°C 290º 12kt 8000m Light Showers Rain 3.00mm precipitation Vertical Visibility of 0ft. 1007 No Significant change. Runway 28: Wet or puddles, 51-100% contamination with <1mm, friction coefficient 0.50. UMGG 291700Z 29006MPS 8000 -SHRA BKN056CB OVC100 24/21 Q1007 R28/290050 NOSIG
MVFR 27°C / 19°C 290º 12kt Gust 17kt 8000m Light Showers Rain 3.00mm precipitation Vertical Visibility of 0ft. 1007 No Significant change UMGG 291630Z 29006G09MPS 8000 -SHRA BKN050CB OVC100 27/19 Q1007 R28/CLRD// NOSIG
MVFR 27°C / 19°C 270º 14kt Gust 23kt 6000m Light Showers Rain 3.00mm precipitation Vertical Visibility of 0ft. 1006 Temporary: Visibility 2000. Thunderstorm Rain . UMGG 291600Z 27007G12MPS 6000 -SHRA BKN050CB OVC100 27/19 Q1006 R28/D TEMPO 2000 TSRA
VFR 31°C / 16°C 290º 16kt Gust 25kt >10km - Broken Clouds 5000ft 1006 No Significant change UMGG 291530Z 29008G13MPS 9999 BKN050CB OVC100 31/16 Q1006 R28/CLRD// NOSIG
VFR 31°C / 16°C 260º 10kt >10km - Scattered Clouds 5000ft 1006 No Significant change UMGG 291500Z 26005MPS 9999 SCT050CB BKN100 31/16 Q1006 R28/D NOSIG
VFR 31°C / 16°C 240º 10kt >10km - Clouds and Visibility OK 1007 No Significant change UMGG 291430Z 24005MPS CAVOK 31/16 Q1007 R28/D NOSIG
VFR 31°C / 16°C 240º 10kt >10km - Clouds and Visibility OK 1007 No Significant change UMGG 291400Z 24005MPS CAVOK 31/16 Q1007 R28/D NOSIG
VFR 30°C / 17°C 250º 12kt >10km - Clouds and Visibility OK 1007 No Significant change UMGG 291330Z 25006MPS CAVOK 30/17 Q1007 R28/CLRD// NOSIG
VFR 30°C / 17°C 250º 12kt >10km - Clouds and Visibility OK 1007 No Significant change UMGG 291300Z 25006MPS CAVOK 30/17 Q1007 R28/D NOSIG
VFR 30°C / 17°C 220º 12kt >10km - Clouds and Visibility OK 1008 No Significant change UMGG 291230Z 22006MPS CAVOK 30/17 Q1008 R10/D NOSIG
VFR 30°C / 17°C 200º 8kt >10km - Clouds and Visibility OK 1008 No Significant change UMGG 291200Z 20004MPS CAVOK 30/17 Q1008 R28/CLRD// NOSIG
VFR 29°C / 17°C 230º 12kt >10km - Clouds and Visibility OK 1008 No Significant change UMGG 291130Z 23006MPS CAVOK 29/17 Q1008 R28/CLRD// NOSIG
VFR 29°C / 17°C 240º 14kt >10km - Clouds and Visibility OK 1009 No Significant change UMGG 291100Z 24007MPS CAVOK 29/17 Q1009 R28/CLRD// NOSIG
VFR 29°C / 18°C 250º 10kt Gust 16kt >10km - Clouds and Visibility OK 1009 No Significant change UMGG 291030Z 25005G08MPS CAVOK 29/18 Q1009 R28/CLRD// NOSIG
VFR 29°C / 18°C 220º 8kt >10km - Clouds and Visibility OK 1009 No Significant change UMGG 291000Z 22004MPS CAVOK 29/18 Q1009 R28/CLRD// NOSIG
VFR 29°C / 18°C 230º 10kt >10km - Clouds and Visibility OK 1009 No Significant change UMGG 290930Z 23005MPS CAVOK 29/18 Q1009 R28/CLRD// NOSIG
VFR 29°C / 18°C 210º 10kt >10km - Clouds and Visibility OK 1009 No Significant change UMGG 290900Z 21005MPS CAVOK 29/18 Q1009 R28/CLRD// NOSIG
VFR 28°C / 18°C 210º 6kt >10km - Clouds and Visibility OK 1009 No Significant change UMGG 290830Z 21003MPS CAVOK 28/18 Q1009 R28/CLRD// NOSIG
VFR 28°C / 18°C 210º 6kt >10km - Clouds and Visibility OK 1009 No Significant change UMGG 290800Z 21003MPS CAVOK 28/18 Q1009 R28/CLRD// NOSIG
VFR 27°C / 19°C 230º 6kt >10km - Clouds and Visibility OK 1010 No Significant change UMGG 290730Z 23003MPS CAVOK 27/19 Q1010 R28/CLRD// NOSIG
VFR 27°C / 19°C 250º 6kt >10km - Clouds and Visibility OK 1010 No Significant change UMGG 290700Z 25003MPS CAVOK 27/19 Q1010 R28/D NOSIG
VFR 26°C / 19°C 210º 4kt >10km - Clouds and Visibility OK 1010 No Significant change UMGG 290600Z 21002MPS CAVOK 26/19 Q1010 R28/CLRD// NOSIG
VFR 24°C / 19°C 210º 4kt 9000m - Clear 1010 No Significant change UMGG 290530Z 21002MPS 9000 NSC 24/19 Q1010 R28/CLRD// NOSIG
MVFR 24°C / 19°C variable 2kt 8000m - Clear 1010 No Significant change UMGG 290500Z VRB01MPS 8000 NSC 24/19 Q1010 R28/D NOSIG

MVFR

24°C / 21°C

[Meer]
Wind 290º 12kt
Zicht 8000m
Weer Light Showers Rain 3.00mm precipitation
Wolken Vertical Visibility of 0ft.
Luchtdruk 1007
Wijzigen No Significant change. Runway 28: Wet or puddles, 51-100% contamination with <1mm, friction coefficient 0.50.
Ruw UMGG 291700Z 29006MPS 8000 -SHRA BKN056CB OVC100 24/21 Q1007 R28/290050 NOSIG

MVFR

27°C / 19°C

[Meer]
Wind 290º 12kt Gust 17kt
Zicht 8000m
Weer Light Showers Rain 3.00mm precipitation
Wolken Vertical Visibility of 0ft.
Luchtdruk 1007
Wijzigen No Significant change
Ruw UMGG 291630Z 29006G09MPS 8000 -SHRA BKN050CB OVC100 27/19 Q1007 R28/CLRD// NOSIG

MVFR

27°C / 19°C

[Meer]
Wind 270º 14kt Gust 23kt
Zicht 6000m
Weer Light Showers Rain 3.00mm precipitation
Wolken Vertical Visibility of 0ft.
Luchtdruk 1006
Wijzigen Temporary: Visibility 2000. Thunderstorm Rain .
Ruw UMGG 291600Z 27007G12MPS 6000 -SHRA BKN050CB OVC100 27/19 Q1006 R28/D TEMPO 2000 TSRA

VFR

31°C / 16°C

[Meer]
Wind 290º 16kt Gust 25kt
Zicht >10km
Weer -
Wolken Broken Clouds 5000ft
Luchtdruk 1006
Wijzigen No Significant change
Ruw UMGG 291530Z 29008G13MPS 9999 BKN050CB OVC100 31/16 Q1006 R28/CLRD// NOSIG

VFR

31°C / 16°C

[Meer]
Wind 260º 10kt
Zicht >10km
Weer -
Wolken Scattered Clouds 5000ft
Luchtdruk 1006
Wijzigen No Significant change
Ruw UMGG 291500Z 26005MPS 9999 SCT050CB BKN100 31/16 Q1006 R28/D NOSIG

VFR

31°C / 16°C

[Meer]
Wind 240º 10kt
Zicht >10km
Weer -
Wolken Clouds and Visibility OK
Luchtdruk 1007
Wijzigen No Significant change
Ruw UMGG 291430Z 24005MPS CAVOK 31/16 Q1007 R28/D NOSIG

VFR

31°C / 16°C

[Meer]
Wind 240º 10kt
Zicht >10km
Weer -
Wolken Clouds and Visibility OK
Luchtdruk 1007
Wijzigen No Significant change
Ruw UMGG 291400Z 24005MPS CAVOK 31/16 Q1007 R28/D NOSIG

VFR

30°C / 17°C

[Meer]
Wind 250º 12kt
Zicht >10km
Weer -
Wolken Clouds and Visibility OK
Luchtdruk 1007
Wijzigen No Significant change
Ruw UMGG 291330Z 25006MPS CAVOK 30/17 Q1007 R28/CLRD// NOSIG

VFR

30°C / 17°C

[Meer]
Wind 250º 12kt
Zicht >10km
Weer -
Wolken Clouds and Visibility OK
Luchtdruk 1007
Wijzigen No Significant change
Ruw UMGG 291300Z 25006MPS CAVOK 30/17 Q1007 R28/D NOSIG

VFR

30°C / 17°C

[Meer]
Wind 220º 12kt
Zicht >10km
Weer -
Wolken Clouds and Visibility OK
Luchtdruk 1008
Wijzigen No Significant change
Ruw UMGG 291230Z 22006MPS CAVOK 30/17 Q1008 R10/D NOSIG

VFR

30°C / 17°C

[Meer]
Wind 200º 8kt
Zicht >10km
Weer -
Wolken Clouds and Visibility OK
Luchtdruk 1008
Wijzigen No Significant change
Ruw UMGG 291200Z 20004MPS CAVOK 30/17 Q1008 R28/CLRD// NOSIG

VFR

29°C / 17°C

[Meer]
Wind 230º 12kt
Zicht >10km
Weer -
Wolken Clouds and Visibility OK
Luchtdruk 1008
Wijzigen No Significant change
Ruw UMGG 291130Z 23006MPS CAVOK 29/17 Q1008 R28/CLRD// NOSIG

VFR

29°C / 17°C

[Meer]
Wind 240º 14kt
Zicht >10km
Weer -
Wolken Clouds and Visibility OK
Luchtdruk 1009
Wijzigen No Significant change
Ruw UMGG 291100Z 24007MPS CAVOK 29/17 Q1009 R28/CLRD// NOSIG

VFR

29°C / 18°C

[Meer]
Wind 250º 10kt Gust 16kt
Zicht >10km
Weer -
Wolken Clouds and Visibility OK
Luchtdruk 1009
Wijzigen No Significant change
Ruw UMGG 291030Z 25005G08MPS CAVOK 29/18 Q1009 R28/CLRD// NOSIG

VFR

29°C / 18°C

[Meer]
Wind 220º 8kt
Zicht >10km
Weer -
Wolken Clouds and Visibility OK
Luchtdruk 1009
Wijzigen No Significant change
Ruw UMGG 291000Z 22004MPS CAVOK 29/18 Q1009 R28/CLRD// NOSIG

VFR

29°C / 18°C

[Meer]
Wind 230º 10kt
Zicht >10km
Weer -
Wolken Clouds and Visibility OK
Luchtdruk 1009
Wijzigen No Significant change
Ruw UMGG 290930Z 23005MPS CAVOK 29/18 Q1009 R28/CLRD// NOSIG

VFR

29°C / 18°C

[Meer]
Wind 210º 10kt
Zicht >10km
Weer -
Wolken Clouds and Visibility OK
Luchtdruk 1009
Wijzigen No Significant change
Ruw UMGG 290900Z 21005MPS CAVOK 29/18 Q1009 R28/CLRD// NOSIG

VFR

28°C / 18°C

[Meer]
Wind 210º 6kt
Zicht >10km
Weer -
Wolken Clouds and Visibility OK
Luchtdruk 1009
Wijzigen No Significant change
Ruw UMGG 290830Z 21003MPS CAVOK 28/18 Q1009 R28/CLRD// NOSIG

VFR

28°C / 18°C

[Meer]
Wind 210º 6kt
Zicht >10km
Weer -
Wolken Clouds and Visibility OK
Luchtdruk 1009
Wijzigen No Significant change
Ruw UMGG 290800Z 21003MPS CAVOK 28/18 Q1009 R28/CLRD// NOSIG

VFR

27°C / 19°C

[Meer]
Wind 230º 6kt
Zicht >10km
Weer -
Wolken Clouds and Visibility OK
Luchtdruk 1010
Wijzigen No Significant change
Ruw UMGG 290730Z 23003MPS CAVOK 27/19 Q1010 R28/CLRD// NOSIG

VFR

27°C / 19°C

[Meer]
Wind 250º 6kt
Zicht >10km
Weer -
Wolken Clouds and Visibility OK
Luchtdruk 1010
Wijzigen No Significant change
Ruw UMGG 290700Z 25003MPS CAVOK 27/19 Q1010 R28/D NOSIG

VFR

26°C / 19°C

[Meer]
Wind 210º 4kt
Zicht >10km
Weer -
Wolken Clouds and Visibility OK
Luchtdruk 1010
Wijzigen No Significant change
Ruw UMGG 290600Z 21002MPS CAVOK 26/19 Q1010 R28/CLRD// NOSIG

VFR

24°C / 19°C

[Meer]
Wind 210º 4kt
Zicht 9000m
Weer -
Wolken Clear
Luchtdruk 1010
Wijzigen No Significant change
Ruw UMGG 290530Z 21002MPS 9000 NSC 24/19 Q1010 R28/CLRD// NOSIG

MVFR

24°C / 19°C

[Meer]
Wind variable 2kt
Zicht 8000m
Weer -
Wolken Clear
Luchtdruk 1010
Wijzigen No Significant change
Ruw UMGG 290500Z VRB01MPS 8000 NSC 24/19 Q1010 R28/D NOSIG

TAF voor 52.53°N 31.02°O (UMGG)

From till


Maximum Temperature 26ºC on . Minimum Temperature 18ºC on .
From till Wind 270º 12kt. Visibility 10km or more. Broken Clouds 3000ft.
Temporarly from till Wind 300º 10kt. Visibility 1200m. Showers Rain Mist . Broken Clouds 400ft. Broken Clouds 2500ft.
Temporarly from till Wind 310º 12kt. Gust 21kt. Visibility 2000m. Showers Rain Mist . Broken Clouds 500ft. Broken Clouds 3000ft.
Temporarly from till Wind 310º 12kt. Gust 21kt.

Ruw: TAF UMGG 291656Z 2918/3018 27006MPS 9999 BKN030 TX26/3011Z TN18/3002Z TEMPO 2918/3003 30005MPS 1200 SHRA BR BKN004 BKN025CB TEMPO 3003/3010 31006G11MPS 2000 SHRA BR BKN005 BKN030CB TEMPO 3010/3018 31006G11MPS

Huidige satelliet- en regenbeelden voor 52.53°N 31.02°O

De locatiemarkering is geplaatst op 52.53°N 31.02°O. [Meer]

Het realtime satellietbeeld combineert zichtbaar licht overdag met infraroodstraling 's nachts. 's Nachts is het beeld niet donker, omdat infraroodstraling temperatuurverschillen kan waarnemen. Helaas zijn lage wolken en mist moeilijk te onderscheiden van grondtemperaturen en kunnen dus 's nachts bijna onzichtbaar zijn. Meteosat-satellietbeelden voor Europa worden elke 5 minuten in real time bijgewerkt. De beelden van GOES-16/GOES-17 (Noord- en Zuid-Amerika) en Himawari (Azië) worden om de 10 minuten bijgewerkt.

Copyright 2021 EUMETSAT / meteoblue. / Copyright 2021 meteoblue

Radar en neerslag nowcast voor 52.53°N 31.02°O

Motregen
Licht
Matig
Zwaar
Zeer zwaar
Hail

De locatiemarkering wordt geplaatst op 52.53°N 31.02°O. Deze animation toont de neerslag radar van het afgelopen uur, maar ook de 1h verwachting. Motregen en lichte sneeuw zijn niet zichtbaar op de radar. Neerslag intensiteitwordt in een kleurcode weergegeven, variërend van licht blauw tot zwart paars.